Weather in Sri Ganganagar

India     29°54′51″N   73°52′47″E
temp.,
°C
wind,
m/s
gust,
m/s
humid.,
%
clouds,
%
prec.,
mm/h
press.,
hPa
HPBL,
m
17 april, sat
sat1723:30+23nw410433 0.0 1009210
02:30+21nnw37525 0.0 1009142
05:30+20nnw22555 0.0 100921
08:30+24wnw34421 0.0 1011490
11:30+30w56270 0.0 10121843
14:30+33wnw56210 0.0 10092742
17:30+33wnw57190 0.0 10072958
20:30+28nnw22270 0.0 100913
18 april, sun
sun1823:30+25e48340 0.0 1010162
02:30+23e48410 0.0 1009129
05:30+21e48480 0.0 1010136
08:30+28sse34290 0.0 1012384
11:30+35sw46160 0.0 10102212
14:30+38w5781 0.0 10064571
17:30+37wnw88847 0.0 10063702
20:30+30wnw22130 0.0 100712
19 april, mon
mon1923:30+27n231785 0.0 100715
02:30+25ene34280 0.0 100552
05:30+23ene2333100 0.0 100617
08:30+29ese22227 0.0 1007309
11:30+37sse111189 0.0 10062057
14:30+39w48782 0.0 10034417
17:30+38nw56880 0.0 10024115
20:30+31nnw3312100 0.0 100314
20 april, tue
tue2023:30+28nne33168 0.0 100427
02:30+27ene342099 0.0 100348
05:30+26ne3320100 0.0 100346
08:30+29ne3515100 0.0 1003221
11:30+34nne4411100 0.0 1004790
14:30+36ne261294 0.0 10013701
17:30+34nw6714100 0.3 10022045
20:30+23nw712470 0.0 1005280
21 april, wed
wed2123:30+21nw38580 0.0 1006221
02:30+20n355724 0.0 100590
05:30+19n22576 0.0 100720
08:30+23nnw334398 0.0 1010326
11:30+30nw4426100 0.3 1009836
14:30+31ene332023 0.0 1007886
17:30+30s4523100 0.1 1006739
20:30+25sse3330100 0.0 100722